Tracking 25953 objects as of 15-Aug-2022
HD Live streaming from Space Station
objects crossing your sky now

THOR ABLESTAR DEB

Track THOR ABLESTAR DEB now!
10-day predictions


NORAD ID: 13514
Int'l Code: 1961-015KX
Perigee: 893.7 km
Apogee: 1,266.3 km
Inclination: 66.7 °
Period: 106.7 minutes
Semi major axis: 7451 km
RCS: 0.0184 m2 (small)
Launch date: June 29, 1961
Source: United States (US)
Launch site: AIR FORCE EASTERN TEST RANGE (AFETR)

Note: This is SATELLITE DEBRIS
aabbcc
Your satellite tracking list
Your tracking list is empty




NASA's NSSDC Master Catalog

Two Line Element Set (TLE):
1 13514U 61015KX  22226.76475802  .00000244  00000-0  40747-3 0  9995
2 13514  66.7178 357.5751 0250039 203.2684 275.6163 13.49824211 75184
Source of the keplerian elements: AFSPC